Weather History for Lincolnton, NC

Change the Weather History Date:

Thursday, August 1, 2013

  Actual Average (KCLT) Record (KCLT)
Temperature  
Mean Temperature 76 °F 78 °F  
Max Temperature 84 °F 89 °F 98 °F (1957)
Min Temperature 69 °F 68 °F 58 °F (1966)
Degree Days  
Heating Degree Days 0 0  
Month to date heating degree days 0  
Since 1 June heating degree days 3  
Since 1 July heating degree days 0  
Cooling Degree Days 12 13  
Month to date cooling degree days 13  
Year to date cooling degree days 907  
Since 1 June cooling degree days 744  
Growing Degree Days 26 (Base 50)    
Moisture  
Dew Point 70 °F    
Average Humidity 85    
Maximum Humidity 100    
Minimum Humidity 58    
Precipitation  
Precipitation 0.11 in 0.14 in 2.39 in (2014)
Month to date precipitation 0.14  
Year to date precipitation 24.52  
Snow  
Snow 0.00 in 0.00 in 0.00 in ()
Month to date snowfall 0.0  
Since 1 June snowfall 0.0  
Since 1 July snowfall 0.0  
Snow Depth -    
Sea Level Pressure  
Sea Level Pressure 29.96 in    
Wind  
Wind Speed 2 mph (WSW)    
Max Wind Speed 6 mph    
Max Gust Speed -    
Visibility 8 miles    
Events Rain    
T = Trace of Precipitation, MM = Missing Value Source: NWS Daily Summary

Daily Weather History Graph

Daily Weather History Graph

Search for Another Location

Airport:

Trip Planner

Search our weather history database for the weather conditions in past years. The results will help you decide how hot, cold, wet, or windy it might be!

Date:

Astronomy

Aug. 01, 2013 Rise Set
Actual Time 6:33 AM EDT 8:28 PM EDT
Civil Twilight 6:05 AM EDT 8:56 PM EDT
Nautical Twilight 5:31 AM EDT 9:29 PM EDT
Astronomical Twilight 4:54 AM EDT 10:06 PM EDT
Moon 2:09 AM EDT (8/1) 4:34 PM EDT (8/1)
Length of Visible Light 14h 50m
Length of Day
13h 54m
Waning Crescent, 23% of the Moon is Illuminated
Aug 1
Waning Crescent
Aug 6
New
Aug 14
First Quarter
Aug 20
Full
Aug 28
Last Quarter

Hourly Weather History & Observations

Time (EDT) Temp. Heat Index Dew Point Humidity Pressure Visibility Wind Dir Wind Speed Gust Speed Precip Events Conditions
12:15 AM 71.6 °F - 69.8 °F 94% 30.02 in 7.0 mi WSW 3.5 mph - N/A   Overcast
12:35 AM 71.6 °F - 69.8 °F 94% 30.02 in 7.0 mi WSW 3.5 mph - N/A   Overcast
12:55 AM 71.6 °F - 69.8 °F 94% 30.02 in 7.0 mi WSW 3.5 mph - N/A   Mostly Cloudy
1:15 AM 71.6 °F - 69.8 °F 94% 30.01 in 7.0 mi SW 4.6 mph - N/A   Overcast
1:35 AM 71.6 °F - 69.8 °F 94% 30.00 in 10.0 mi Calm Calm - N/A   Overcast
1:55 AM 71.6 °F - 69.8 °F 94% 30.00 in 10.0 mi Calm Calm - N/A   Overcast
2:15 AM 71.6 °F - 69.8 °F 94% 29.99 in 7.0 mi Calm Calm - N/A   Overcast
2:35 AM 69.8 °F - 69.8 °F 100% 29.97 in 5.0 mi Calm Calm - N/A   Overcast
2:57 AM 69.8 °F - 69.8 °F 100% 29.97 in 5.0 mi Calm Calm - N/A   Overcast
3:15 AM 69.8 °F - 69.8 °F 100% 29.97 in 7.0 mi Calm Calm - N/A   Overcast
3:35 AM 69.8 °F - 69.8 °F 100% 29.96 in 7.0 mi Calm Calm - N/A   Overcast
3:55 AM 69.8 °F - 69.8 °F 100% 29.96 in 7.0 mi Calm Calm - N/A   Overcast
4:15 AM 69.8 °F - 69.8 °F 100% 29.96 in 5.0 mi Calm Calm - N/A   Overcast
4:37 AM 69.8 °F - 69.8 °F 100% 29.96 in 5.0 mi Calm Calm - N/A   Overcast
4:55 AM 69.8 °F - 69.8 °F 100% 29.95 in 5.0 mi Calm Calm - N/A   Overcast
5:15 AM 69.8 °F - 69.8 °F 100% 29.95 in 5.0 mi Calm Calm - N/A   Overcast
5:35 AM 71.6 °F - 69.8 °F 94% 29.95 in 5.0 mi WSW 3.5 mph - N/A   Overcast
5:55 AM 69.8 °F - 69.8 °F 100% 29.94 in 4.0 mi SW 4.6 mph - N/A   Mostly Cloudy
6:17 AM 69.8 °F - 69.8 °F 100% 29.94 in 5.0 mi Calm Calm - N/A   Scattered Clouds
6:35 AM 69.8 °F - 69.8 °F 100% 29.95 in 3.0 mi Calm Calm - N/A   Scattered Clouds
6:55 AM 69.8 °F - 69.8 °F 100% 29.95 in 2.5 mi Calm Calm - N/A   Mostly Cloudy
7:15 AM 71.6 °F - 69.8 °F 94% 29.96 in 4.0 mi Calm Calm - N/A   Overcast
7:35 AM 71.6 °F - 69.8 °F 94% 29.97 in 3.0 mi WSW 3.5 mph - N/A   Overcast
7:55 AM 71.6 °F - 69.8 °F 94% 29.97 in 4.0 mi Calm Calm - N/A   Overcast
8:15 AM 71.6 °F - 69.8 °F 94% 29.97 in 5.0 mi Calm Calm - N/A   Overcast
8:38 AM 71.6 °F - 69.8 °F 94% 29.97 in 7.0 mi Calm Calm - N/A   Overcast
8:55 AM 73.4 °F - 71.6 °F 94% 29.97 in 7.0 mi WSW 5.8 mph - N/A   Overcast
9:17 AM 73.4 °F - 69.8 °F 88% 29.97 in 10.0 mi West 5.8 mph - N/A   Overcast
9:35 AM 75.2 °F - 71.6 °F 89% 29.97 in 10.0 mi West 3.5 mph - N/A   Overcast
9:55 AM 75.2 °F - 69.8 °F 83% 29.97 in 10.0 mi WSW 5.8 mph - N/A   Overcast
10:15 AM 75.2 °F - 69.8 °F 83% 29.97 in 10.0 mi West 4.6 mph - N/A   Overcast
10:55 AM 78.8 °F - 69.8 °F 74% 29.98 in 10.0 mi Calm Calm - N/A   Overcast
11:15 AM 80.6 °F 83.9 °F 69.8 °F 70% 29.97 in 10.0 mi Calm Calm - N/A   Mostly Cloudy
11:35 AM 80.6 °F 83.9 °F 69.8 °F 70% 29.97 in 10.0 mi Calm Calm - N/A   Scattered Clouds
11:55 AM 80.6 °F 83.2 °F 68.0 °F 65% 29.96 in 10.0 mi Calm Calm - N/A   Scattered Clouds
12:15 PM 80.6 °F 83.9 °F 69.8 °F 70% 29.96 in 10.0 mi Calm Calm - N/A   Scattered Clouds
12:38 PM 82.4 °F 86.3 °F 69.8 °F 66% 29.96 in 10.0 mi West 3.5 mph - N/A   Mostly Cloudy
12:55 PM 84.2 °F 88.4 °F 69.8 °F 62% 29.95 in 10.0 mi Calm Calm - N/A   Mostly Cloudy
1:15 PM 84.2 °F 87.3 °F 68.0 °F 58% 29.94 in 10.0 mi Calm Calm - N/A   Scattered Clouds
1:35 PM 82.4 °F 85.4 °F 68.0 °F 62% 29.94 in 10.0 mi Calm Calm - N/A   Mostly Cloudy
1:55 PM 78.8 °F - 71.6 °F 78% 29.95 in 10.0 mi WNW 5.8 mph - 0.03 in Rain Light Rain
2:15 PM 73.4 °F - 69.8 °F 88% 29.95 in 2.5 mi Calm Calm - 0.08 in Rain Heavy Rain
2:35 PM 73.4 °F - 71.6 °F 94% 29.95 in 10.0 mi WSW 4.6 mph - 0.08 in   Mostly Cloudy
2:55 PM 73.4 °F - 71.6 °F 94% 29.95 in 10.0 mi West 3.5 mph - 0.08 in   Scattered Clouds
3:15 PM 75.2 °F - 69.8 °F 83% 29.94 in 10.0 mi Calm Calm - N/A   Mostly Cloudy
3:35 PM 78.8 °F - 71.6 °F 78% 29.93 in 10.0 mi South 3.5 mph - N/A   Mostly Cloudy
3:56 PM 80.6 °F 83.9 °F 69.8 °F 70% 29.93 in 10.0 mi SW 3.5 mph - N/A   Mostly Cloudy
4:16 PM 80.6 °F 83.2 °F 68.0 °F 65% 29.93 in 10.0 mi WSW 3.5 mph - N/A   Mostly Cloudy
4:35 PM 78.8 °F - 66.2 °F 65% 29.93 in 10.0 mi WSW 3.5 mph - N/A   Clear
4:57 PM 80.6 °F 82.7 °F 66.2 °F 61% 29.92 in 10.0 mi WSW 3.5 mph - N/A   Clear
5:15 PM 82.4 °F 86.3 °F 69.8 °F 66% 29.92 in 10.0 mi Calm Calm - N/A   Clear
5:35 PM 82.4 °F 86.3 °F 69.8 °F 66% 29.92 in 10.0 mi SW 4.6 mph - N/A   Clear
5:58 PM 82.4 °F 86.3 °F 69.8 °F 66% 29.91 in 10.0 mi SW 3.5 mph - N/A   Clear
6:15 PM 82.4 °F 86.3 °F 69.8 °F 66% 29.91 in 10.0 mi WSW 3.5 mph - N/A   Clear
6:37 PM 82.4 °F 86.3 °F 69.8 °F 66% 29.92 in 10.0 mi WSW 3.5 mph - N/A   Scattered Clouds
6:55 PM 82.4 °F 86.3 °F 69.8 °F 66% 29.92 in 10.0 mi Calm Calm - N/A   Scattered Clouds
7:15 PM 80.6 °F 84.6 °F 71.6 °F 74% 29.93 in 10.0 mi Calm Calm - N/A   Clear
7:35 PM 80.6 °F 84.6 °F 71.6 °F 74% 29.93 in 10.0 mi Calm Calm - N/A   Clear
7:55 PM 78.8 °F - 71.6 °F 78% 29.94 in 10.0 mi Calm Calm - N/A   Clear
8:15 PM 77.0 °F - 71.6 °F 83% 29.95 in 10.0 mi SW 3.5 mph - N/A   Scattered Clouds
8:35 PM 75.2 °F - 71.6 °F 89% 29.95 in 10.0 mi WSW 3.5 mph - N/A   Scattered Clouds
8:55 PM 75.2 °F - 71.6 °F 89% 29.95 in 10.0 mi Calm Calm - N/A   Clear
9:15 PM 75.2 °F - 71.6 °F 89% 29.95 in 10.0 mi Calm Calm - N/A   Clear
9:35 PM 73.4 °F - 71.6 °F 94% 29.96 in 10.0 mi Calm Calm - N/A   Clear
9:55 PM 73.4 °F - 71.6 °F 94% 29.97 in 10.0 mi Calm Calm - N/A   Clear
10:15 PM 71.6 °F - 69.8 °F 94% 29.97 in 7.0 mi Calm Calm - N/A   Scattered Clouds
10:35 PM 73.4 °F - 71.6 °F 94% 29.97 in 7.0 mi Calm Calm - N/A   Overcast
10:55 PM 71.6 °F - 71.6 °F 100% 29.96 in 7.0 mi Calm Calm - N/A   Overcast
11:17 PM 71.6 °F - 71.6 °F 100% 29.96 in 10.0 mi Calm Calm - N/A   Scattered Clouds
11:35 PM 71.6 °F - 69.8 °F 94% 29.97 in 7.0 mi Calm Calm - N/A   Clear
11:55 PM 71.6 °F - 69.8 °F 94% 29.97 in 7.0 mi WSW 3.5 mph - N/A   Clear